Regional Weather Roundup
Issued by NWS

Home | Current Version | Previous Version | Graphics & Text | Print | Product List | Glossary On
Versions: 1 2 3 4 5 6 7 8 9 10 11 12 13 14 15 16 17 18 19 20 21 22 23 24 25 26 27 28 29 30 31 32 33 34 35 36 37 38 39 40 41 42 43 44 45 46 47 48 49 50
546
ASUS43 KFSD 240210
RWRSD

WEATHER ROUNDUP FOR SOUTH DAKOTA
NATIONAL WEATHER SERVICE SIOUX FALLS SD
800 PM CST TUE JAN 23 2018

NOTE: "FAIR" INDICATES FEW OR NO CLOUDS BELOW 12,000 FEET WITH NO
SIGNIFICANT WEATHER AND/OR OBSTRUCTIONS TO VISIBILITY.


SDZ001>005-009-010-012>017-240300-
NORTHWEST AND NORTH CENTRAL SOUTH DAKOTA

CITY           SKY/WX    TMP DP  RH WIND       PRES   REMARKS
BUFFALO          N/A     25  18  74 W10       30.07F WCI  15
FAITH            N/A     29  23  78 W15       30.15S WCI  18
MOBRIDGE       CLEAR     22  17  81 N3        30.13R
$$

SDZ012>016-024>037-041>051-057-063-072>074-240300-
SOUTHWEST AND SOUTH CENTRAL SOUTH DAKOTA

CITY           SKY/WX    TMP DP  RH WIND       PRES   REMARKS
RAPID CTY ARPT CLEAR     27  18  69 CALM      30.19F
PIERRE         CLEAR     23  20  88 NW9       30.17R WCI  13
CUSTER         CLEAR     20  11  68 W5        30.14S WCI  13
ELLSWORTH AFB  CLEAR     29  20  67 SW6       30.18S WCI  23
PHILIP         CLEAR     31  24  75 NW9       30.20R WCI  23
PINE RIDGE     CLEAR     20  15  81 SW9       30.23R WCI   9
SPEARFISH        N/A     28  18  64 SW10      30.16F WCI  19
WINNER         FAIR      31  24  75 W14       30.18R WCI  21
$$

SDZ004>011-016>023-039-040-240300-
NORTHEAST SOUTH DAKOTA

CITY           SKY/WX    TMP DP  RH WIND       PRES   REMARKS
ABERDEEN       CLEAR     22  19  89 N6        30.16R WCI  14
WATERTOWN      CLOUDY    20  19  96 CALM      30.12R
BROOKINGS      CLOUDY    23  21  92 NW6       30.14R WCI  16
SISSETON         N/A     20  18  92 CALM      30.14R
$$

SDZ017-020-022-023-036>040-048>070-240300-
SOUTHEAST SOUTH DAKOTA

CITY           SKY/WX    TMP DP  RH WIND       PRES   REMARKS
SIOUX FALLS    CLOUDY    23  22  96 CALM      30.16R
HURON          PTCLDY    19  18  95 CALM      30.16R FOG
CHAMBERLAIN    CLEAR     31  26  84 W9        30.17R WCI  23
MITCHELL       PTCLDY    25  24  96 W5        30.17R WCI  19
YANKTON        PTCLDY    21  20  96 CALM      30.17S FOG
$$

ABBREVIATIONS USED IN REMARKS
   TC - TEMPERATURE IN CELSIUS
  WCI - WIND CHILL INDEX
   HX - HEAT INDEX
  VSB - VISIBILITY





USA.gov is the U.S. government's official web portal to all federal, state and local government web resources and services.